Flag for Germany Past Weather in Brandenburg an der Havel, Brandenburg, Germany — Yesterday and Last 2 Weeks

Now
70 °F

Passing clouds.


Feels Like: 70 °F
Forecast: 57 / 78 °F
Wind: 5 mph from Southeast

Location: Berlin-Tegel

Current Time: May 28, 2016 at 12:01:33 PM

Latest Report: May 28, 2016 at 11:20 AM


Visibility: N/A

Pressure: 29.98 "Hg

Humidity: 50%

Dew Point: 50 °F

Location of Brandenburg an der HavelLocation

Past Weather in Brandenburg an der Havel — Graph

°F

Brandenburg an der Havel Temperature Yesterday

Maximum temperature yesterday: 70 °F (at 4:20 PM)
Minimum temperature yesterday: 48 °F (at 3:20 AM)
Average temperature yesterday: 61 °F

High & Low Weather Summary for the Past Weeks

 TemperatureHumidityPressure
High84 °F (May 22, 2:50 PM)100% (May 24, 5:20 AM)30.07 "Hg (May 24, 5:20 AM)
Low41 °F (May 16, 2:50 AM)20% (May 19, 2:50 PM)29.50 "Hg (May 13, 2:50 PM)
Average59 °F63%29.88 "Hg
* Reported May 13 11:20 AM — May 28 11:20 AM, Brandenburg an der Havel, Weather by CustomWeather, © 2016

Note: Actual official high and low records may vary slightly from our data, if they occured in-between our weather recording intervals... More about our weather records

Advertising

Brandenburg an der Havel Weather History for the Previous 24 Hours

Scroll right to see more
 ConditionsComfort  
Time TempWeatherWind HumidityBarometerVisibility
11:20 AM
Sat, May 28
70 °FPassing clouds.5 mph50%29.98 "HgN/A
10:20 AM68 °FPassing clouds.6 mph56%29.98 "HgN/A
9:50 AM66 °FPassing clouds.5 mph60%29.98 "HgN/A
9:20 AM66 °FPassing clouds.3 mph60%29.98 "HgN/A
8:50 AM63 °FSunny.2 mph68%30.01 "Hg10 mi
8:20 AM63 °FSunny.1 mph68%30.01 "Hg10 mi
7:50 AM59 °FSunny.2 mph77%30.01 "Hg10 mi
7:20 AM57 °FSunny.2 mph72%30.01 "Hg10 mi
6:50 AM55 °FPassing clouds.5 mph77%30.01 "HgN/A
6:20 AM55 °FPassing clouds.5 mph77%30.01 "HgN/A
5:50 AM54 °FClear.2 mph82%30.01 "Hg10 mi
5:20 AM54 °FPassing clouds.5 mph82%30.01 "HgN/A
4:50 AM52 °FClear.2 mph82%30.01 "Hg10 mi
4:20 AM54 °FClear.2 mph77%30.01 "Hg10 mi
3:50 AM55 °FClear.2 mph77%30.01 "Hg10 mi
3:20 AM55 °FClear.2 mph77%30.01 "Hg10 mi
2:50 AM55 °FPassing clouds.3 mph72%30.01 "HgN/A
2:20 AM57 °FPassing clouds.5 mph72%30.01 "HgN/A
1:50 AM57 °FPassing clouds.3 mph72%30.01 "HgN/A
1:20 AM57 °FPassing clouds.5 mph72%30.01 "HgN/A
12:50 AM59 °FPassing clouds.5 mph68%30.01 "HgN/A
12:20 AM59 °FPassing clouds.5 mph72%30.01 "HgN/A
11:50 PM
Fri, May 27
61 °FPassing clouds.3 mph72%30.01 "HgN/A
11:20 PM63 °FClear.2 mph73%30.01 "Hg10 mi
10:50 PM63 °FPassing clouds.5 mph73%30.04 "HgN/A
10:20 PM63 °FPassing clouds.5 mph73%30.04 "HgN/A
9:50 PM64 °FScattered clouds.6 mph64%30.04 "HgN/A
9:20 PM66 °FPassing clouds.5 mph60%30.01 "HgN/A
8:50 PM66 °FPassing clouds.5 mph64%30.01 "HgN/A
8:20 PM66 °FPassing clouds.3 mph56%30.01 "HgN/A
7:50 PM68 °FPassing clouds.5 mph49%30.01 "HgN/A
7:20 PM68 °FPassing clouds.7 mph49%30.01 "HgN/A
6:50 PM70 °FSunny.5 mph43%30.01 "Hg10 mi
6:20 PM68 °FBroken clouds.5 mph46%30.01 "HgN/A
5:50 PM68 °FBroken clouds.3 mph46%30.01 "HgN/A
5:20 PM70 °FBroken clouds.3 mph43%30.01 "HgN/A
4:50 PM70 °FBroken clouds.5 mph43%30.01 "HgN/A
4:20 PM70 °FPartly sunny.7 mph46%30.01 "HgN/A
3:50 PM68 °FPartly sunny.6 mph46%30.04 "HgN/A
3:20 PM68 °FPartly sunny.6 mph49%30.04 "HgN/A
2:50 PM68 °FPartly sunny.7 mph49%30.04 "HgN/A
2:20 PM68 °FBroken clouds.7 mph49%30.04 "HgN/A
1:50 PM66 °FBroken clouds.8 mph52%30.04 "HgN/A
1:20 PM68 °FBroken clouds.7 mph49%30.04 "HgN/A
12:50 PM68 °FBroken clouds.3 mph53%30.04 "HgN/A
12:20 PM66 °FBroken clouds.7 mph60%30.04 "HgN/A
Weather by CustomWeather, © 2016

See weather overviewHow to use our weather pages